Date,TemperatureHighF,TemperatureAvgF,TemperatureLowF,DewpointHighF,DewpointAvgF,DewpointLowF,HumidityHigh,HumidityAvg,HumidityLow,PressureMaxIn,PressureMinIn,WindSpeedMaxMPH,WindSpeedAvgMPH,GustSpeedMaxMPH,PrecipitationSumIn
2013-1-1,29.0,25.9,23.0,28.0,24.0,21.0,94,92,90,0.00,40.00,12,7,15,0.00
2013-1-2,21.0,12.9,3.0,10.0,5.1,0.0,90,72,48,0.00,40.00,12,6,15,0.00
2013-1-3,30.0,21.9,14.0,26.0,16.1,4.0,89,78,61,0.00,40.00,15,11,19,0.00
2013-1-4,27.0,18.6,9.0,22.0,14.9,8.0,93,85,78,0.00,40.00,20,13,24,0.00
2013-1-5,35.0,27.1,18.0,31.0,23.6,17.0,93,86,73,0.00,40.00,19,11,22,0.00
2013-1-6,35.0,29.7,25.0,32.0,26.4,20.0,92,87,81,0.00,40.00,22,13,27,0.00
2013-1-7,34.0,25.0,14.0,26.0,21.0,13.0,94,85,70,0.00,40.00,18,10,26,0.00
2013-1-8,39.0,31.8,24.0,29.0,25.9,21.0,88,79,64,0.00,40.00,17,11,21,0.00
2013-1-9,47.0,39.7,32.0,38.0,34.0,27.0,93,80,68,0.00,40.00,16,11,21,0.00
2013-1-10,45.0,35.7,30.0,43.0,30.5,24.0,94,81,68,0.00,40.00,21,11,25,0.00
2013-1-11,57.0,52.0,45.0,52.0,49.0,44.0,94,89,79,0.00,40.00,24,18,30,0.00
2013-1-12,60.0,54.5,44.0,54.0,50.8,41.0,93,87,75,0.00,40.00,24,13,30,0.00
2013-1-13,44.0,32.0,19.0,42.0,30.3,17.0,94,93,87,0.00,40.00,24,9,30,0.00
2013-1-14,22.0,17.8,14.0,18.0,14.3,11.0,90,85,79,0.00,40.00,6,3,7,0.00
2013-1-15,28.0,22.7,17.0,22.0,17.8,15.0,92,82,66,0.00,40.00,14,7,17,0.00
2013-1-16,34.0,28.4,21.0,27.0,23.0,20.0,93,81,58,0.00,40.00,20,10,24,0.00
2013-1-17,37.0,30.3,22.0,31.0,23.3,16.0,92,76,51,0.00,40.00,18,8,21,0.00
2013-1-18,39.0,28.7,18.0,27.0,20.5,16.0,90,72,48,0.00,40.00,29,16,38,0.00
2013-1-19,50.0,41.7,36.0,37.0,31.6,26.0,85,67,54,0.00,40.00,29,22,36,0.00
2013-1-20,42.0,23.5,19.0,36.0,13.3,10.0,80,64,56,0.00,40.00,27,14,38,0.00
2013-1-21,20.0,13.5,8.0,13.0,5.9,-3.0,90,71,53,0.00,40.00,27,16,34,0.00
2013-1-22,15.0,9.0,3.0,1.0,-0.1,-1.0,85,66,51,0.00,40.00,17,12,26,0.00
2013-1-23,22.0,16.6,11.0,15.0,6.3,2.0,74,63,50,0.00,40.00,22,7,30,0.00
2013-1-24,21.0,14.7,10.0,13.0,9.9,8.0,91,80,68,0.00,40.00,22,12,30,0.00
2013-6-12,88.0,84.5,74.0,73.0,72.1,66.0,88,67,58,0.00,40.00,19,13,27,0.00
2013-6-13,77.0,70.1,62.0,70.0,60.3,51.0,93,73,44,0.00,40.00,24,13,31,0.00
2013-6-14,81.0,67.0,55.0,60.0,56.2,53.0,92,70,42,0.00,40.00,11,6,16,0.00
2013-6-15,78.0,68.1,63.0,65.0,61.9,59.0,90,81,57,0.00,40.00,9,5,12,0.00
2013-6-16,79.0,71.4,67.0,69.0,66.2,63.0,92,84,67,0.00,40.00,29,11,37,0.00
2013-6-17,89.0,73.9,67.0,71.0,64.0,56.0,93,75,33,0.00,40.00,9,5,11,0.00
2013-6-18,83.0,72.8,65.0,67.0,61.9,58.0,92,71,44,0.00,40.00,16,8,20,0.00
2013-6-19,81.0,69.6,61.0,61.0,58.5,55.0,91,70,42,0.00,40.00,11,7,16,0.00
2013-6-20,85.0,69.3,65.0,64.0,59.8,58.0,81,72,46,0.00,40.00,11,6,17,0.00
2013-6-22,81.0,81.0,81.0,71.0,71.0,71.0,71,71,71,0.00,40.00,11,11,21,0.00
2013-6-25,86.0,80.8,69.0,73.0,69.7,64.0,91,69,56,0.00,40.00,14,11,21,0.00
2013-6-26,80.0,72.8,68.0,72.0,68.6,66.0,93,86,68,0.00,40.00,17,9,23,0.00
2013-6-27,87.0,72.9,69.0,71.0,67.8,65.0,93,85,51,0.00,40.00,12,8,17,0.00
2013-6-28,82.0,71.6,65.0,68.0,62.8,54.0,92,77,38,0.00,40.00,19,9,27,0.00
2013-6-29,73.0,66.5,62.0,67.0,63.3,60.0,93,89,75,0.00,40.00,11,5,17,0.00
2013-6-30,73.0,67.9,63.0,65.0,62.2,59.0,92,82,65,0.00,40.00,19,10,24,0.00
2013-7-1,73.0,66.8,64.0,64.0,62.1,60.0,91,84,65,0.00,40.00,19,11,26,0.00
2013-7-2,74.0,65.9,61.0,65.0,61.4,58.0,92,85,74,0.00,40.00,15,10,19,0.00
2013-7-3,75.0,69.2,64.0,65.0,63.2,62.0,93,82,61,0.00,40.00,14,8,19,0.00
2013-7-4,78.0,70.6,60.0,67.0,60.2,55.0,93,72,45,0.00,40.00,10,4,13,0.00
2013-7-5,82.0,72.8,64.0,67.0,63.8,62.0,93,75,51,0.00,40.00,11,5,15,0.00
2013-7-6,71.0,70.0,68.0,69.0,67.5,66.0,93,92,84,0.00,40.00,12,6,16,0.00
2013-7-7,83.0,72.4,65.0,69.0,66.6,63.0,93,83,59,0.00,40.00,10,7,17,0.00
2013-7-8,85.0,72.0,69.0,74.0,64.0,-99.9,92,86,66,0.00,40.00,16,9,21,0.00
2013-7-9,86.0,78.8,75.0,78.0,74.2,72.0,92,85,65,0.00,40.00,11,8,17,0.00
2013-7-10,82.0,77.9,71.0,77.0,72.9,65.0,92,84,63,0.00,40.00,12,9,20,0.00
2013-7-11,80.0,70.4,62.0,62.0,58.7,54.0,90,68,44,0.00,40.00,14,8,22,0.00
2013-7-12,81.0,67.6,57.0,62.0,57.7,53.0,93,73,40,0.00,40.00,10,6,14,0.00
2013-7-13,83.0,75.0,61.0,68.0,62.1,58.0,92,66,48,0.00,40.00,16,9,21,0.00
2013-7-14,88.0,76.5,66.0,74.0,68.1,64.0,93,77,49,0.00,40.00,10,7,12,0.00
2013-7-15,88.0,79.3,73.0,74.0,72.1,70.0,92,80,56,0.00,40.00,9,6,12,0.00
2013-7-16,91.0,80.6,72.0,74.0,71.0,68.0,92,74,48,0.00,40.00,7,3,8,0.00
2013-7-17,93.0,82.8,73.0,76.0,71.9,70.0,92,71,48,0.00,40.00,7,3,9,0.00
2013-7-18,92.0,81.8,72.0,76.0,72.3,69.0,93,75,45,0.00,40.00,7,4,11,0.00
2013-7-19,90.0,80.5,73.0,75.0,73.3,71.0,92,80,59,0.00,40.00,15,9,21,0.00
2013-7-20,79.0,74.5,69.0,74.0,71.5,67.0,93,90,83,0.00,40.00,12,7,17,0.00
2013-7-21,84.0,75.0,67.0,74.0,69.8,65.0,93,84,64,0.00,40.00,7,4,9,0.00
2013-7-22,84.0,73.6,67.0,71.0,68.2,65.0,93,84,58,0.00,40.00,9,4,13,0.00
2013-7-23,82.0,73.3,68.0,70.0,66.4,60.0,92,80,57,0.00,40.00,17,9,22,0.00
2013-7-24,74.0,63.3,55.0,56.0,53.6,51.0,93,73,46,0.00,40.00,14,9,21,0.00
2013-7-25,80.0,70.3,57.0,58.0,54.1,52.0,92,59,38,0.00,40.00,7,3,9,0.00
2013-7-26,77.0,68.1,59.0,64.0,60.1,56.0,91,76,52,0.00,40.00,10,6,17,0.00
2013-7-27,74.0,68.4,63.0,65.0,55.9,50.0,93,66,49,0.00,40.00,19,10,24,0.00
2013-7-28,70.0,62.6,49.0,55.0,49.7,47.0,93,65,44,0.00,40.00,20,10,26,0.00
2013-7-29,76.0,65.4,53.0,60.0,53.3,50.0,92,68,44,0.00,40.00,11,5,15,0.00
2013-7-30,69.0,62.0,58.0,67.0,58.8,55.0,92,89,82,0.00,40.00,7,5,11,0.00
2013-7-31,75.0,71.0,65.0,70.0,67.3,63.0,93,88,85,0.00,40.00,6,6,10,0.00
2013-8-1,80.0,75.4,66.0,62.0,55.8,53.0,70,51,41,0.00,40.00,15,8,21,0.00
2013-8-2,78.0,70.3,58.0,68.0,61.8,54.0,92,75,58,0.00,40.00,18,11,24,0.00
2013-8-3,82.0,73.6,66.0,68.0,62.0,54.0,93,69,47,0.00,40.00,12,7,19,0.00
2013-8-4,79.0,71.0,57.0,60.0,55.7,53.0,89,60,41,0.00,40.00,9,5,13,0.00
2013-8-5,77.0,67.2,60.0,67.0,60.2,55.0,92,79,47,0.00,40.00,9,4,13,0.00
2013-8-6,80.0,70.1,65.0,72.0,66.3,63.0,93,88,74,0.00,40.00,8,5,11,0.00
2013-8-7,83.0,74.7,69.0,75.0,71.1,67.0,93,88,71,0.00,40.00,12,6,17,0.00
2013-8-8,76.0,72.4,69.0,73.0,70.2,67.0,93,92,90,0.00,40.00,7,5,10,0.00
2013-8-9,82.0,72.3,63.0,68.0,65.4,61.0,93,80,49,0.00,40.00,8,4,12,0.00
2013-8-10,70.0,68.0,67.0,66.0,65.2,65.0,92,91,89,0.00,40.00,4,3,4,0.00